Powrót do katalogu

STARLINK-35282

AktywnyŁącznośćSSO
NORAD 65658·PAYLOAD·🇺🇸 United States

Wystrzelony Sep 19, 2025 z Vandenberg Space Force Base

Loading…

Następne Przeloty (najbliższe 24 godziny)

TLE

ŚwieżeSource: CelesTrak SupGP

Epoka: Sep 15, 2026, 02:46 UTC

1 65658C 25211G   26258.11576389  .00017040  00000+0  52891-3 0  2581
2 65658  97.2841 298.3567 0001399  90.8657 268.7651 15.33433949    10

Śledź STARLINK-35282 w czasie rzeczywistym z AllMySat

Download on the App Store